Cheraw, SC

4:54 PM EDT on May 24, 2017 (GMT -0400)
Cheraw

Weather History for KCQW - January, 2013

Change the Weather History Date:

Wednesday, January 23, 2013

  Actual Average (KFLO) Record (KFLO)
Temperature  
Mean Temperature 34 °F -  
Max Temperature 46 °F 56 °F 82 °F (1974)
Min Temperature 23 °F 36 °F 14 °F (1985)
Degree Days  
Heating Degree Days 30    
Moisture  
Dew Point 13 °F    
Average Humidity 45    
Maximum Humidity 80    
Minimum Humidity 22    
Precipitation  
Precipitation 0.00 in - - ()
Sea Level Pressure  
Sea Level Pressure 30.27 in    
Wind  
Wind Speed 6 mph (SSW)    
Max Wind Speed 17 mph    
Max Gust Speed 34 mph    
Visibility 10 miles    
Events      
Averages and records for this station are not official NWS values.
T = Trace of Precipitation, MM = Missing Value Source: NWS Daily Summary

Daily Weather History Graph

Daily Weather History Graph

Search for Another Location

Airport or City:

Trip Planner

Search our weather history database for the weather conditions in past years. The results will help you decide how hot, cold, wet, or windy it might be!

Date:

Astronomy

Jan. 23, 2013 Rise Set
Actual Time 7:23 AM EST 5:40 PM EST
Civil Twilight 6:56 AM EST 6:07 PM EST
Nautical Twilight 6:26 AM EST 6:37 PM EST
Astronomical Twilight 5:56 AM EST 7:07 PM EST
Moon 2:51 PM EST (1/23) 4:31 AM EST (1/23)
Length of Visible Light 11h 10m
Length of Day
10h 16m
Waxing Gibbous, 89% of the Moon is Illuminated
Jan 23
Waxing Gibbous
Jan 26
Full
Feb 3
Last Quarter
Feb 10
New
Feb 17
First Quarter

Hourly Weather History & Observations

Time (EST) Temp. Windchill Dew Point Humidity Pressure Visibility Wind Dir Wind Speed Gust Speed Precip Events Conditions
12:15 AM 28.4 °F 22.2 °F 19.4 °F 69% 30.27 in 10.0 mi North 5.8 mph - N/A   Clear
12:35 AM 28.4 °F 24.6 °F 15.8 °F 59% 30.27 in 10.0 mi North 3.5 mph - N/A   Clear
12:55 AM 28.4 °F 22.2 °F 14.0 °F 55% 30.28 in 10.0 mi North 5.8 mph - N/A   Clear
1:15 AM 28.4 °F 24.6 °F 14.0 °F 55% 30.28 in 10.0 mi NE 3.5 mph - N/A   Clear
1:35 AM 30.2 °F 25.4 °F 12.2 °F 47% 30.28 in 10.0 mi NNE 4.6 mph - N/A   Clear
1:55 AM 30.2 °F - 10.4 °F 44% 30.29 in 10.0 mi Calm Calm - N/A   Clear
2:15 AM 28.4 °F - 12.2 °F 51% 30.30 in 10.0 mi Calm Calm - N/A   Clear
2:35 AM 28.4 °F - 8.6 °F 43% 30.30 in 10.0 mi Calm Calm - N/A   Clear
2:55 AM 28.4 °F - 10.4 °F 47% 30.31 in 10.0 mi Calm Calm - N/A   Clear
3:15 AM 28.4 °F - 10.4 °F 47% 30.30 in 10.0 mi Calm Calm - N/A   Clear
3:35 AM 26.6 °F - 14.0 °F 59% 30.30 in 10.0 mi Calm Calm - N/A   Clear
3:55 AM 24.8 °F 17.9 °F 14.0 °F 64% 30.30 in 10.0 mi NNE 5.8 mph - N/A   Clear
4:15 AM 23.0 °F 14.7 °F 17.6 °F 80% 30.30 in 10.0 mi NNE 6.9 mph - N/A   Clear
4:35 AM 26.6 °F 22.6 °F 12.2 °F 55% 30.31 in 10.0 mi NE 3.5 mph - N/A   Clear
4:55 AM 26.6 °F - 12.2 °F 55% 30.31 in 10.0 mi Calm Calm - N/A   Clear
5:15 AM 23.0 °F - 14.0 °F 68% 30.32 in 10.0 mi Calm Calm - N/A   Clear
5:35 AM 24.8 °F - 14.0 °F 64% 30.33 in 10.0 mi Calm Calm - N/A   Clear
5:55 AM 23.0 °F - 14.0 °F 68% 30.33 in 10.0 mi Calm Calm - N/A   Clear
6:15 AM 23.0 °F - 12.2 °F 63% 30.33 in 10.0 mi Calm Calm - N/A   Clear
6:35 AM 23.0 °F - 12.2 °F 63% 30.34 in 10.0 mi Calm Calm - N/A   Clear
6:55 AM 24.8 °F - 8.6 °F 50% 30.35 in 10.0 mi Calm Calm - N/A   Clear
7:15 AM 23.0 °F - 8.6 °F 54% 30.35 in 10.0 mi Calm Calm - N/A   Clear
7:35 AM 23.0 °F - 10.4 °F 59% 30.35 in 10.0 mi Calm Calm - N/A   Clear
7:55 AM 23.0 °F - 10.4 °F 59% 30.35 in 10.0 mi Calm Calm - N/A   Clear
8:15 AM 26.6 °F - 12.2 °F 55% 30.36 in 10.0 mi Calm Calm - N/A   Clear
8:55 AM 28.4 °F 21.2 °F 12.2 °F 51% 30.38 in 10.0 mi East 6.9 mph - N/A   Clear
9:15 AM 30.2 °F 20.2 °F 10.4 °F 44% 30.38 in 10.0 mi East 12.7 mph 20.7 mph N/A   Clear
9:35 AM 32.0 °F 21.6 °F 8.6 °F 38% 30.39 in 10.0 mi SE 15.0 mph 20.7 mph N/A   Clear
9:55 AM 32.0 °F 22.1 °F 6.8 °F 35% 30.39 in 10.0 mi SE 13.8 mph 23.0 mph N/A   Clear
10:15 AM 32.0 °F 24.8 °F 6.8 °F 35% 30.38 in 10.0 mi East 8.1 mph 24.2 mph N/A   Clear
10:35 AM 33.8 °F 27.7 °F 8.6 °F 35% 30.39 in 10.0 mi East 6.9 mph - N/A   Clear
10:55 AM 35.6 °F 28.6 °F 5.0 °F 28% 30.38 in 10.0 mi South 9.2 mph - N/A   Clear
11:15 AM 35.6 °F 30.7 °F 5.0 °F 28% 30.38 in 10.0 mi SE 5.8 mph - N/A   Clear
11:35 AM 37.4 °F 34.9 °F 3.2 °F 24% 30.37 in 10.0 mi NNE 3.5 mph - N/A   Clear
11:55 AM 37.4 °F - 3.2 °F 24% 30.36 in 10.0 mi Calm Calm - N/A   Clear
12:15 PM 37.4 °F 32.8 °F 3.2 °F 24% 30.34 in 10.0 mi NE 5.8 mph 16.1 mph N/A   Clear
12:35 PM 39.2 °F 35.0 °F 3.2 °F 22% 30.32 in 10.0 mi NW 5.8 mph 21.9 mph N/A   Clear
12:55 PM 39.2 °F 30.5 °F 6.8 °F 26% 30.31 in 10.0 mi NW 16.1 mph 26.5 mph N/A   Clear
1:15 PM 41.0 °F - 6.8 °F 24% 30.29 in 10.0 mi Calm Calm - N/A   Clear
1:35 PM 41.0 °F 34.7 °F 8.6 °F 26% 30.27 in 10.0 mi South 10.4 mph 21.9 mph N/A   Clear
1:55 PM 42.8 °F 38.0 °F 8.6 °F 25% 30.26 in 10.0 mi SW 8.1 mph 20.7 mph N/A   Clear
2:15 PM 42.8 °F 34.8 °F 10.4 °F 27% 30.25 in 10.0 mi SW 17.3 mph 26.5 mph N/A   Clear
2:35 PM 44.6 °F 41.4 °F 10.4 °F 25% 30.24 in 10.0 mi WSW 5.8 mph 34.5 mph N/A   Clear
2:55 PM 44.6 °F 37.2 °F 10.4 °F 25% 30.24 in 10.0 mi SW 17.3 mph 26.5 mph N/A   Clear
3:15 PM 44.6 °F 38.1 °F 12.2 °F 27% 30.23 in 10.0 mi WSW 13.8 mph 23.0 mph N/A   Clear
3:35 PM 46.4 °F 41.9 °F 12.2 °F 25% 30.23 in 10.0 mi WSW 9.2 mph 24.2 mph N/A   Clear
3:55 PM 46.4 °F 39.5 °F 12.2 °F 25% 30.23 in 10.0 mi WSW 17.3 mph 27.6 mph N/A   Clear
4:15 PM 46.4 °F 41.5 °F 12.2 °F 25% 30.23 in 10.0 mi WSW 10.4 mph 31.1 mph N/A   Clear
4:35 PM 46.4 °F 40.4 °F 14.0 °F 27% 30.22 in 10.0 mi SW 13.8 mph - N/A   Clear
4:55 PM 44.6 °F 37.2 °F 14.0 °F 29% 30.21 in 10.0 mi SW 17.3 mph 23.0 mph N/A   Clear
5:15 PM 44.6 °F 38.1 °F 14.0 °F 29% 30.21 in 10.0 mi SW 13.8 mph - N/A   Clear
5:35 PM 42.8 °F 37.0 °F 15.8 °F 34% 30.21 in 10.0 mi SSW 10.4 mph - N/A   Clear
5:55 PM 42.8 °F 38.0 °F 15.8 °F 34% 30.20 in 10.0 mi SSW 8.1 mph - N/A   Clear
6:15 PM 39.2 °F 34.2 °F 15.8 °F 39% 30.21 in 10.0 mi SSW 6.9 mph - N/A   Clear
6:35 PM 37.4 °F 30.3 °F 17.6 °F 45% 30.20 in 10.0 mi South 10.4 mph - N/A   Clear
6:55 PM 37.4 °F 31.4 °F 19.4 °F 48% 30.20 in 10.0 mi South 8.1 mph - N/A   Clear
7:15 PM 35.6 °F 29.9 °F 19.4 °F 52% 30.19 in 10.0 mi South 6.9 mph - N/A   Clear
7:35 PM 37.4 °F 30.3 °F 17.6 °F 45% 30.18 in 10.0 mi South 10.4 mph - N/A   Clear
7:55 PM 35.6 °F 28.6 °F 17.6 °F 48% 30.17 in 10.0 mi South 9.2 mph - N/A   Clear
8:15 PM 37.4 °F 31.4 °F 17.6 °F 45% 30.17 in 10.0 mi South 8.1 mph - N/A   Clear
8:35 PM 35.6 °F 27.1 °F 17.6 °F 48% 30.16 in 10.0 mi South 12.7 mph - N/A   Clear
8:55 PM 35.6 °F 28.0 °F 17.6 °F 48% 30.16 in 10.0 mi SSW 10.4 mph - N/A   Clear
9:15 PM 35.6 °F 28.0 °F 17.6 °F 48% 30.16 in 10.0 mi SSW 10.4 mph - N/A   Clear
9:35 PM 35.6 °F 27.5 °F 19.4 °F 52% 30.16 in 10.0 mi SSW 11.5 mph 16.1 mph N/A   Clear
9:55 PM 33.8 °F 24.8 °F 19.4 °F 56% 30.14 in 10.0 mi South 12.7 mph - N/A   Clear
10:15 PM 35.6 °F 27.5 °F 19.4 °F 52% 30.13 in 10.0 mi South 11.5 mph - N/A   Clear
10:35 PM 35.6 °F 27.1 °F 21.2 °F 56% 30.12 in 10.0 mi SSW 12.7 mph - N/A   Clear
10:55 PM 35.6 °F 27.5 °F 21.2 °F 56% 30.12 in 10.0 mi SSW 11.5 mph - N/A   Clear
11:15 PM 35.6 °F 27.1 °F 21.2 °F 56% 30.11 in 10.0 mi South 12.7 mph - N/A   Clear
11:35 PM 33.8 °F 23.9 °F 21.2 °F 60% 30.10 in 10.0 mi SSW 15.0 mph - N/A   Clear
11:55 PM 33.8 °F 24.8 °F 23.0 °F 65% 30.09 in 10.0 mi SSW 12.7 mph - N/A   Clear